EW5836 Weather Reports


Display with metric or nautical units.
time (UTC)temp
F
wind
direction
speed
MPH
gust
MPH
rain 1hr
in
rain 24hr
in
rain mn
in
humidity
%
barometer
mb
20260901064110 73 314 0.0 0.0 0.00 0.00 0.00 54 1018.8
20260901063611 73 314 0.0 3.0 0.00 0.00 0.00 56 1018.8
20260901063035 72 316 0.0 0.0 0.00 0.00 0.00 56 1018.7
20260901062535 72 315 0.0 0.0 0.00 0.00 0.00 57 1018.7
20260901062043 72 315 0.0 0.0 0.00 0.00 0.00 57 1018.7
20260901061544 71 315 0.0 0.0 0.00 0.00 0.00 58 1018.6
20260901061101 71 315 0.0 0.0 0.00 0.00 0.00 58 1018.5
20260901060544 70 315 0.0 0.0 0.00 0.00 0.00 58 1018.4
20260901060035 70 315 0.0 0.0 0.00 0.00 0.00 58 1018.4
20260901055534 70 315 0.0 0.0 0.00 0.00 0.00 56 1018.3
20260901055043 69 315 0.0 0.0 0.00 0.00 0.00 58 1018.3
20260901054546 69 315 0.0 0.0 0.00 0.00 0.00 59 1018.2
20260901054100 69 316 0.0 0.0 0.00 0.00 0.00 58 1018.2
20260901053533 69 316 0.0 0.0 0.00 0.00 0.00 56 1018.2
20260901053042 68 315 0.0 0.0 0.00 0.00 0.00 55 1018.1
20260901052540 68 315 0.0 0.0 0.00 0.00 0.00 58 1018.1
20260901052038 68 315 0.0 0.0 0.00 0.00 0.00 56 1018.1
20260901051534 67 315 0.0 0.0 0.00 0.00 0.00 57 1018.1
20260901051045 68 316 0.0 0.0 0.00 0.00 0.00 56 1018.0
20260901050545 68 315 0.0 0.0 0.00 0.00 0.00 56 1018.0
20260901050035 67 315 0.0 0.0 0.00 0.00 0.00 55 1017.9
20260901045536 68 316 0.0 0.0 0.00 0.00 0.00 56 1017.9
20260901045048 68 315 0.0 0.0 0.00 0.00 0.00 53 1017.9
20260901044548 68 315 0.0 0.0 0.00 0.00 0.00 56 1017.9
20260901044059 68 315 0.0 0.0 0.00 0.00 0.00 55 1017.8
20260901043535 69 315 0.0 0.0 0.00 0.00 0.00 52 1017.7
20260901043107 68 315 0.0 0.0 0.00 0.00 0.00 52 1017.6
20260901042549 67 316 0.0 0.0 0.00 0.00 0.00 53 1017.6
20260901042038 68 316 0.0 0.0 0.00 0.00 0.00 54 1017.6
20260901041544 68 315 0.0 0.0 0.00 0.00 0.00 54 1017.6
20260901041102 68 315 0.0 0.0 0.00 0.00 0.00 54 1017.6
20260901040543 67 315 0.0 0.0 0.00 0.00 0.00 55 1017.6
20260901040038 67 315 0.0 0.0 0.00 0.00 0.00 56 1017.5
20260901035540 68 315 0.0 0.0 0.00 0.00 0.00 57 1017.4
20260901035046 67 307 0.0 0.0 0.00 0.00 0.00 57 1017.4
20260901034540 68 301 0.0 0.0 0.00 0.00 0.00 57 1017.4
20260901034058 68 301 0.0 0.0 0.00 0.00 0.00 55 1017.4
20260901033535 68 301 0.0 0.0 0.00 0.00 0.00 55 1017.2
20260901033051 68 301 0.0 0.0 0.00 0.00 0.00 53 1017.1
20260901032556 68 301 0.0 0.0 0.00 0.00 0.00 56 1017.0
20260901032048 68 301 0.0 0.0 0.00 0.00 0.00 56 1017.0
20260901031548 68 301 0.0 0.0 0.00 0.00 0.00 58 1017.0
20260901031037 69 301 0.0 0.0 0.00 0.00 0.00 58 1017.0
20260901030559 69 301 0.0 0.0 0.00 0.00 0.00 54 1017.0
20260901030049 69 301 0.0 0.0 0.00 0.00 0.00 55 1017.0
20260901025532 70 277 0.0 0.0 0.00 0.00 0.00 54 1016.9
20260901025038 70 294 0.0 5.0 0.00 0.00 0.00 53 1016.9
20260901024541 69 294 1.0 5.0 0.00 0.00 0.00 53 1017.0
20260901024051 69 282 0.0 4.0 0.00 0.00 0.00 55 1017.0
20260901023535 69 282 0.0 4.0 0.00 0.00 0.00 56 1017.0
20260901023040 69 275 0.0 2.0 0.00 0.00 0.00 56 1016.9
20260901022603 69 270 0.0 2.0 0.00 0.00 0.00 55 1016.9
20260901022033 68 299 0.0 2.0 0.00 0.00 0.00 56 1016.9
20260901021539 69 299 1.0 3.0 0.00 0.00 0.00 58 1016.9
20260901021057 68 299 1.0 3.0 0.00 0.00 0.00 57 1016.8
20260901020533 68 299 0.0 4.0 0.00 0.00 0.00 59 1016.9
20260901020044 68 299 2.0 4.0 0.00 0.00 0.00 57 1016.8
20260901015547 68 299 0.0 4.0 0.00 0.00 0.00 56 1016.9
20260901015105 69 299 2.0 4.0 0.00 0.00 0.00 57 1016.9
20260901014543 69 299 0.0 3.0 0.00 0.00 0.00 57 1016.8
20260901014032 69 299 0.0 4.0 0.00 0.00 0.00 54 1016.8
20260901013535 69 299 1.0 4.0 0.00 0.00 0.00 55 1016.9
20260901013040 69 299 2.0 3.0 0.00 0.00 0.00 55 1016.9
20260901012542 70 299 0.0 0.0 0.00 0.00 0.00 56 1016.9
20260901012032 70 299 0.0 3.0 0.00 0.00 0.00 57 1016.9
20260901011535 70 299 0.0 3.0 0.00 0.00 0.00 56 1016.9
20260901011041 70 299 0.0 3.0 0.00 0.00 0.00 55 1016.9
20260901010544 70 299 1.0 3.0 0.00 0.00 0.00 57 1016.8
20260901010032 71 299 1.0 3.0 0.00 0.00 0.00 55 1016.8
20260901005534 72 299 0.0 3.0 0.00 0.00 0.00 53 1016.8
20260901005041 72 253 0.0 3.0 0.00 0.00 0.00 52 1016.8
20260901004605 72 299 0.0 9.0 0.00 0.00 0.00 52 1016.7
20260901004056 72 305 1.0 9.0 0.00 0.00 0.00 54 1016.7
20260901003533 72 265 0.0 5.0 0.00 0.00 0.00 51 1016.8
20260901003040 71 262 2.0 8.0 0.00 0.00 0.00 51 1016.7
20260901002542 71 245 2.0 7.0 0.00 0.00 0.00 56 1016.6
20260901002045 71 315 3.0 4.0 0.00 0.00 0.00 58 1016.6
20260901001546 72 315 0.0 3.0 0.00 0.00 0.00 57 1016.6
20260901001033 72 315 0.0 0.0 0.00 0.00 0.00 55 1016.6
20260901000533 72 315 0.0 4.0 0.00 0.00 0.00 54 1016.6
20260901000041 72 315 1.0 4.0 0.00 0.00 0.00 56 1016.6
20260831235544 72 315 3.0 4.0 0.00 0.00 0.00 55 1016.6
20260831235040 72 315 1.0 4.0 0.00 0.00 0.00 58 1016.6
20260831234540 72 316 0.0 0.0 0.00 0.00 0.00 60 1016.5
20260831234044 72 317 0.0 0.0 0.00 0.00 0.00 59 1016.5
20260831233545 73 317 0.0 0.0 0.00 0.00 0.00 59 1016.5
20260831233037 73 317 0.0 0.0 0.00 0.00 0.00 57 1016.5
20260831232537 73 317 0.0 3.0 0.00 0.00 0.00 59 1016.5
20260831232059 74 317 0.0 3.0 0.00 0.00 0.00 59 1016.4
20260831231541 74 326 0.0 0.0 0.00 0.00 0.00 59 1016.4
20260831231059 74 326 0.0 0.0 0.00 0.00 0.00 59 1016.3
20260831230535 74 326 0.0 0.0 0.00 0.00 0.00 58 1016.2
20260831230038 73 326 0.0 0.0 0.00 0.00 0.00 60 1016.2
20260831225538 73 326 0.0 0.0 0.00 0.00 0.00 63 1016.2
20260831225046 73 350 0.0 0.0 0.00 0.00 0.00 64 1016.2
20260831224539 73 302 0.0 0.0 0.00 0.00 0.00 63 1016.1
20260831224049 73 302 0.0 0.0 0.00 0.00 0.00 63 1016.2
20260831223551 74 302 0.0 0.0 0.00 0.00 0.00 63 1016.2
20260831223039 74 302 0.0 0.0 0.00 0.00 0.00 62 1016.3
20260831222533 75 302 0.0 0.0 0.00 0.00 0.00 62 1016.3
20260831222032 75 302 0.0 0.0 0.00 0.00 0.00 62 1016.2
20260831221547 75 302 0.0 0.0 0.00 0.00 0.00 62 1016.2
20260831221102 75 302 0.0 0.0 0.00 0.00 0.00 63 1016.2
20260831220541 75 302 0.0 0.0 0.00 0.00 0.00 63 1016.2
20260831220051 75 295 0.0 0.0 0.00 0.00 0.00 63 1016.2
20260831215559 75 295 0.0 0.0 0.00 0.00 0.00 62 1016.1
20260831215046 75 301 0.0 0.0 0.00 0.00 0.00 65 1016.1
20260831214549 75 301 0.0 0.0 0.00 0.00 0.00 64 1016.1
20260831214104 75 308 0.0 0.0 0.00 0.00 0.00 64 1016.1
20260831213543 75 308 0.0 0.0 0.00 0.00 0.00 63 1016.1
20260831213037 75 301 0.0 0.0 0.00 0.00 0.00 61 1016.1
20260831212536 75 303 0.0 0.0 0.00 0.00 0.00 63 1016.1
20260831212045 76 303 0.0 0.0 0.00 0.00 0.00 62 1016.1
20260831211546 76 301 0.0 0.0 0.00 0.00 0.00 61 1016.1
20260831211101 77 292 0.0 0.0 0.00 0.00 0.00 60 1016.1
20260831210534 77 248 0.0 0.0 0.00 0.00 0.00 59 1016.1
20260831210041 78 347 0.0 0.0 0.00 0.00 0.00 58 1016.0
20260831205543 78 347 0.0 0.0 0.00 0.00 0.00 54 1015.9
20260831205043 78 347 0.0 0.0 0.00 0.00 0.00 55 1015.9
20260831204551 78 335 0.0 0.0 0.00 0.00 0.00 53 1015.8
20260831204104 78 323 0.0 11.0 0.00 0.00 0.00 54 1015.9
20260831203546 78 318 1.0 11.0 0.00 0.00 0.00 56 1015.8
20260831203105 77 326 1.0 6.0 0.00 0.00 0.00 58 1015.8
20260831202545 78 306 0.0 0.0 0.00 0.00 0.00 56 1015.9
20260831202044 78 307 0.0 0.0 0.00 0.00 0.00 50 1015.8
20260831201605 78 336 0.0 2.0 0.00 0.00 0.00 53 1015.8
20260831201048 77 66 0.0 3.0 0.00 0.00 0.00 48 1015.7
20260831200550 76 341 0.0 0.0 0.00 0.00 0.00 58 1015.7
20260831200041 76 318 0.0 0.0 0.00 0.00 0.00 63 1015.6
20260831195541 76 312 0.0 0.0 0.00 0.00 0.00 67 1015.6
20260831195051 77 312 0.0 0.0 0.00 0.00 0.00 68 1015.6
20260831194555 77 312 0.0 0.0 0.00 0.00 0.00 68 1015.6
20260831194044 78 312 0.0 0.0 0.00 0.00 0.00 68 1015.6
20260831193546 78 312 0.0 0.0 0.00 0.00 0.00 68 1015.6
20260831193057 78 312 0.0 0.0 0.00 0.00 0.00 67 1015.4
20260831192532 78 312 0.0 0.0 0.00 0.00 0.00 67 1015.4
20260831192038 78 312 0.0 0.0 0.00 0.00 0.00 67 1015.4
20260831191541 78 312 0.0 0.0 0.00 0.00 0.00 67 1015.3
20260831191059 78 314 0.0 0.0 0.00 0.00 0.00 66 1015.2
20260831190534 79 324 0.0 0.0 0.00 0.00 0.00 66 1015.2
20260831190041 79 324 0.0 0.0 0.00 0.00 0.00 66 1015.1
20260831185544 79 324 0.0 0.0 0.00 0.00 0.00 67 1015.0
20260831185042 79 324 0.0 0.0 0.00 0.00 0.00 66 1015.0
20260831184603 79 324 0.0 0.0 0.00 0.00 0.00 66 1014.9
20260831184037 80 324 0.0 0.0 0.00 0.00 0.00 65 1014.8
20260831183602 80 324 0.0 0.0 0.00 0.00 0.00 64 1014.8
20260831183059 81 324 0.0 0.0 0.00 0.00 0.00 63 1014.7
20260831182534 81 324 0.0 0.0 0.00 0.00 0.00 62 1014.5
20260831182045 81 324 0.0 0.0 0.00 0.00 0.00 61 1014.4
20260831181606 82 324 0.0 0.0 0.00 0.00 0.00 61 1014.3
20260831181102 82 324 0.0 4.0 0.00 0.00 0.00 60 1014.3
20260831180543 83 324 0.0 4.0 0.00 0.00 0.00 58 1014.3
20260831180032 83 324 0.0 2.0 0.00 0.00 0.00 57 1014.2
20260831175532 83 320 0.0 0.0 0.00 0.00 0.00 57 1014.3
20260831175040 83 319 0.0 0.0 0.00 0.00 0.00 56 1014.2
20260831174542 84 318 0.0 0.0 0.00 0.00 0.00 57 1014.2
20260831174041 84 318 0.0 5.0 0.00 0.00 0.00 56 1014.1
20260831173542 84 322 0.0 8.0 0.00 0.00 0.00 55 1014.1
20260831173038 84 323 2.0 8.0 0.00 0.00 0.00 55 1014.1
20260831172542 83 319 1.0 5.0 0.00 0.00 0.00 56 1014.0
20260831172032 83 306 0.0 0.0 0.00 0.00 0.00 54 1014.1
20260831171534 84 301 0.0 0.0 0.00 0.00 0.00 52 1014.1
20260831171039 84 301 0.0 0.0 0.00 0.00 0.00 51 1014.2
20260831170542 85 301 0.0 0.0 0.00 0.00 0.00 51 1014.1
20260831170036 86 131 0.0 0.0 0.00 0.00 0.00 51 1014.2
20260831165540 86 131 0.0 0.0 0.00 0.00 0.00 50 1014.2
20260831165044 87 131 0.0 0.0 0.00 0.00 0.00 49 1014.2
20260831164609 88 131 0.0 0.0 0.00 0.00 0.00 48 1014.2
20260831164038 89 131 0.0 0.0 0.00 0.00 0.00 48 1014.3
20260831163541 90 131 0.0 0.0 0.00 0.00 0.00 47 1014.2
20260831163100 89 131 0.0 0.0 0.00 0.00 0.00 43 1014.2
20260831162534 89 131 0.0 0.0 0.00 0.00 0.00 43 1014.2
20260831162041 89 131 0.0 0.0 0.00 0.00 0.00 42 1014.1
20260831161602 89 131 0.0 0.0 0.00 0.00 0.00 42 1014.1
20260831161048 90 131 0.0 0.0 0.00 0.00 0.00 43 1014.1
20260831160545 90 131 0.0 0.0 0.00 0.00 0.00 42 1014.2
20260831160035 90 161 0.0 0.0 0.00 0.00 0.00 43 1014.2
20260831155534 90 165 0.0 0.0 0.00 0.00 0.00 43 1014.2
20260831155047 90 165 0.0 0.0 0.00 0.00 0.00 43 1014.2
20260831154549 90 165 0.0 0.0 0.00 0.00 0.00 44 1014.3
20260831154036 89 165 0.0 0.0 0.00 0.00 0.00 44 1014.3
20260831153537 89 165 0.0 0.0 0.00 0.00 0.00 44 1014.3
20260831153049 89 165 0.0 0.0 0.00 0.00 0.00 45 1014.3
20260831152551 90 166 0.0 3.0 0.00 0.00 0.00 46 1014.4
20260831152053 90 168 1.0 2.0 0.00 0.00 0.00 44 1014.4
20260831151606 91 182 1.0 4.0 0.00 0.00 0.00 45 1014.4
20260831151038 91 242 2.0 4.0 0.00 0.00 0.00 44 1014.4
20260831150602 91 155 0.0 0.0 0.00 0.00 0.00 44 1014.5
20260831150059 90 155 0.0 5.0 0.00 0.00 0.00 45 1014.4
20260831145541 90 155 2.0 6.0 0.00 0.00 0.00 44 1014.5
20260831145057 91 237 0.0 0.0 0.00 0.00 0.00 46 1014.5
20260831144535 90 158 0.0 0.0 0.00 0.00 0.00 45 1014.6
20260831144042 91 138 0.0 3.0 0.00 0.00 0.00 44 1014.6
20260831143605 91 166 0.0 4.0 0.00 0.00 0.00 46 1014.6
20260831143033 90 226 1.0 4.0 0.00 0.00 0.00 46 1014.6
20260831142535 90 239 0.0 0.0 0.00 0.00 0.00 45 1014.7
20260831142043 90 183 0.0 0.0 0.00 0.00 0.00 47 1014.6
20260831141546 90 150 0.0 7.0 0.00 0.00 0.00 47 1014.6
20260831141036 90 161 0.0 7.0 0.00 0.00 0.00 46 1014.6
20260831140539 91 179 0.0 0.0 0.00 0.00 0.00 47 1014.6
20260831140046 90 179 0.0 0.0 0.00 0.00 0.00 47 1014.6
20260831135546 90 193 0.0 0.0 0.00 0.00 0.00 49 1014.7
20260831135034 90 167 0.0 0.0 0.00 0.00 0.00 49 1014.7
20260831134537 89 242 0.0 6.0 0.00 0.00 0.00 50 1014.8
20260831134050 88 185 0.0 9.0 0.00 0.00 0.00 51 1014.8
20260831133552 89 133 2.0 9.0 0.00 0.00 0.00 49 1014.8
20260831133101 89 176 0.0 0.0 0.00 0.00 0.00 50 1014.9
20260831132535 89 172 0.0 0.0 0.00 0.00 0.00 52 1014.9
20260831132044 88 154 0.0 5.0 0.00 0.00 0.00 52 1014.9
20260831131544 88 155 2.0 11.0 0.00 0.00 0.00 52 1014.9
20260831131050 88 144 3.0 11.0 0.00 0.00 0.00 51 1015.0
20260831130552 89 141 0.0 4.0 0.00 0.00 0.00 51 1015.0
20260831130109 89 125 1.0 4.0 0.00 0.00 0.00 50 1015.1
20260831125549 90 128 0.0 0.0 0.00 0.00 0.00 50 1015.1
20260831125035 89 341 0.0 0.0 0.00 0.00 0.00 50 1015.1
20260831124537 88 228 0.0 7.0 0.00 0.00 0.00 51 1015.2
20260831124044 87 150 0.0 8.0 0.00 0.00 0.00 52 1015.2
20260831123602 87 175 0.0 8.0 0.00 0.00 0.00 54 1015.3
20260831123100 87 157 1.0 8.0 0.00 0.00 0.00 53 1015.3
20260831122532 87 135 4.0 8.0 0.00 0.00 0.00 53 1015.4
20260831122106 87 110 0.0 1.0 0.00 0.00 0.00 53 1015.4
20260831121546 87 185 0.0 8.0 0.00 0.00 0.00 53 1015.5
20260831121054 87 112 0.0 9.0 0.00 0.00 0.00 52 1015.5
20260831120555 87 169 4.0 9.0 0.00 0.00 0.00 53 1015.5
20260831120038 87 118 2.0 8.0 0.00 0.00 0.00 52 1015.5
20260831115601 87 189 2.0 8.0 0.00 0.00 0.00 53 1015.6
20260831115047 87 286 0.0 0.0 0.00 0.00 0.00 51 1015.6
20260831114550 87 248 0.0 0.0 0.00 0.00 0.00 52 1015.7
20260831114042 87 158 0.0 6.0 0.00 0.00 0.00 53 1015.7
20260831113546 87 158 1.0 7.0 0.00 0.00 0.00 53 1015.8
20260831113036 87 143 1.0 7.0 0.00 0.00 0.00 54 1015.9
20260831112559 87 157 0.0 0.0 0.00 0.00 0.00 52 1015.9
20260831112042 87 158 0.0 0.0 0.00 0.00 0.00 53 1016.0
20260831111543 87 321 0.0 0.0 0.00 0.00 0.00 53 1016.0
20260831111035 86 193 0.0 0.0 0.00 0.00 0.00 54 1016.1
20260831110538 86 206 0.0 5.0 0.00 0.00 0.00 54 1016.1
20260831110042 86 164 1.0 6.0 0.00 0.00 0.00 55 1016.1
20260831105547 86 162 0.0 4.0 0.00 0.00 0.00 55 1016.2
20260831105034 85 168 0.0 10.0 0.00 0.00 0.00 57 1016.2
20260831104537 85 135 5.0 10.0 0.00 0.00 0.00 55 1016.2
20260831104044 86 160 0.0 0.0 0.00 0.00 0.00 56 1016.2
20260831103540 85 104 0.0 0.0 0.00 0.00 0.00 58 1016.2
20260831103047 84 242 0.0 3.0 0.00 0.00 0.00 57 1016.3
20260831102551 84 254 0.0 3.0 0.00 0.00 0.00 58 1016.4
20260831102040 84 117 0.0 4.0 0.00 0.00 0.00 57 1016.3
20260831101601 84 174 0.0 6.0 0.00 0.00 0.00 59 1016.4
20260831101036 84 160 1.0 6.0 0.00 0.00 0.00 58 1016.5
20260831100539 84 171 0.0 4.0 0.00 0.00 0.00 58 1016.5
20260831100045 84 170 1.0 4.0 0.00 0.00 0.00 58 1016.5
20260831095542 84 118 0.0 0.0 0.00 0.00 0.00 58 1016.6
20260831095056 83 155 0.0 0.0 0.00 0.00 0.00 58 1016.6
20260831094538 83 155 0.0 0.0 0.00 0.00 0.00 59 1016.6
20260831094048 83 155 0.0 0.0 0.00 0.00 0.00 61 1016.7
20260831093607 83 155 0.0 0.0 0.00 0.00 0.00 60 1016.7
20260831093104 83 174 0.0 0.0 0.00 0.00 0.00 59 1016.6
20260831092548 83 116 0.0 0.0 0.00 0.00 0.00 60 1016.7
20260831092038 83 131 0.0 0.0 0.00 0.00 0.00 61 1016.6
20260831091541 83 103 0.0 0.0 0.00 0.00 0.00 60 1016.7
20260831091059 83 158 0.0 3.0 0.00 0.00 0.00 60 1016.8
20260831090540 83 161 0.0 3.0 0.00 0.00 0.00 60 1016.7
20260831090048 82 169 0.0 7.0 0.00 0.00 0.00 62 1016.7
20260831085551 82 173 1.0 7.0 0.00 0.00 0.00 62 1016.8
20260831085107 81 204 0.0 0.0 0.00 0.00 0.00 61 1016.8
20260831084547 81 164 0.0 0.0 0.00 0.00 0.00 62 1016.8
20260831084100 81 145 0.0 3.0 0.00 0.00 0.00 61 1016.8
20260831083533 81 77 0.0 6.0 0.00 0.00 0.00 62 1016.8
20260831083044 81 154 1.0 6.0 0.00 0.00 0.00 62 1016.8
20260831082546 81 88 1.0 6.0 0.00 0.00 0.00 61 1016.8
20260831082034 81 110 0.0 3.0 0.00 0.00 0.00 60 1016.7
20260831081534 81 141 0.0 0.0 0.00 0.00 0.00 58 1016.7
20260831081043 81 111 0.0 0.0 0.00 0.00 0.00 59 1016.7
20260831080545 81 145 0.0 1.0 0.00 0.00 0.00 61 1016.7
20260831080033 80 208 0.0 1.0 0.00 0.00 0.00 62 1016.7
20260831075537 80 261 0.0 0.0 0.00 0.00 0.00 61 1016.6
20260831075109 79 134 0.0 0.0 0.00 0.00 0.00 65 1016.7
20260831074548 79 134 0.0 3.0 0.00 0.00 0.00 65 1016.7
20260831074102 79 134 0.0 3.0 0.00 0.00 0.00 64 1016.7
20260831073543 79 121 0.0 0.0 0.00 0.00 0.00 63 1016.7
20260831073100 79 122 0.0 0.0 0.00 0.00 0.00 66 1016.7
20260831072533 78 121 0.0 0.0 0.00 0.00 0.00 67 1016.7
20260831072109 77 121 0.0 0.0 0.00 0.00 0.00 66 1016.7
20260831071549 77 121 0.0 0.0 0.00 0.00 0.00 68 1016.7
20260831071041 77 121 0.0 0.0 0.00 0.00 0.00 68 1016.7
20260831070600 77 121 0.0 0.0 0.00 0.00 0.00 69 1016.6
20260831070050 77 121 0.0 0.0 0.00 0.00 0.00 71 1016.6
20260831065612 77 121 0.0 0.0 0.00 0.00 0.00 69 1016.7
20260831065041 77 256 0.0 0.0 0.00 0.00 0.00 71 1016.7
20260831064545 77 256 0.0 0.0 0.00 0.00 0.00 70 1016.6